• en France
  • Liste des pays
  • À 7 jours
  • Température de l'eau
  • Carte satellitaire
  • Carte météo
  • Widgets météo
  • user-avatar
    Se connecter

    Météo par heure à Szekszárd

    Ce jour, 19 Novembre, Dimanche

    Heure Température Précipitation Vent Pression Humidité
    00:00 +4°C° 0 mm 1 m/s 755 mmHg 77%
    01:00 +4°C° 0 mm 1 m/s 754 mmHg 78%
    02:00 +4°C° 0 mm 1 m/s 754 mmHg 78%
    03:00 +4°C° 0 mm 1 m/s 754 mmHg 79%
    04:00 +4°C° 0 mm 1 m/s 753 mmHg 79%
    05:00 +4°C° 0 mm 1 m/s 753 mmHg 80%
    06:00 +4°C° 0 mm 1 m/s 753 mmHg 81%
    07:00 +4°C° 0 mm 1 m/s 753 mmHg 80%
    08:00 +5°C° 0 mm 1 m/s 753 mmHg 76%
    09:00 +6°C° 0 mm 1 m/s 753 mmHg 71%
    10:00 +6°C° 0 mm 2 m/s 753 mmHg 67%
    11:00 +7°C° 0 mm 2 m/s 752 mmHg 64%
    12:00 +7°C° 0 mm 3 m/s 752 mmHg 61%
    13:00 +8°C° 0 mm 3 m/s 751 mmHg 59%
    14:00 +7°C° 0 mm 3 m/s 751 mmHg 62%
    15:00 +7°C° 0 mm 2 m/s 751 mmHg 65%
    16:00 +6°C° 0 mm 2 m/s 751 mmHg 68%
    17:00 +6°C° 0 mm 2 m/s 752 mmHg 71%
    18:00 +5°C° 0 mm 2 m/s 752 mmHg 74%
    19:00 +5°C° 0 mm 2 m/s 753 mmHg 76%
    20:00 +3°C° 0 mm 3 m/s 753 mmHg 76%
    21:00 +3°C° 0 mm 3 m/s 753 mmHg 76%
    22:00 +2°C° 0 mm 3 m/s 754 mmHg 76%
    23:00 +2°C° 0 mm 3 m/s 754 mmHg 76%

    Demain, 20 Novembre, Lundi

    Heure Température Précipitation Vent Pression Humidité
    00:00 +2°C° 0 mm 3 m/s 754 mmHg 76%
    01:00 +2°C° 0 mm 3 m/s 754 mmHg 76%
    02:00 +1°C° 0 mm 3 m/s 754 mmHg 78%
    03:00 +1°C° 0 mm 3 m/s 754 mmHg 80%
    04:00 0°C° 0 mm 4 m/s 754 mmHg 82%
    05:00 0°C° 0 mm 4 m/s 755 mmHg 82%
    06:00 0°C° 0 mm 4 m/s 755 mmHg 82%
    07:00 +1°C° 0 mm 5 m/s 755 mmHg 82%
    08:00 +2°C° 0,1 mm 5 m/s 755 mmHg 75%
    09:00 +3°C° 0,1 mm 6 m/s 756 mmHg 69%
    10:00 +4°C° 0,1 mm 6 m/s 756 mmHg 62%
    11:00 +5°C° 0 mm 6 m/s 756 mmHg 58%
    12:00 +5°C° 0 mm 6 m/s 756 mmHg 55%
    13:00 +7°C° 0 mm 6 m/s 756 mmHg 51%
    14:00 +6°C° 0 mm 5 m/s 756 mmHg 53%
    15:00 +6°C° 0 mm 4 m/s 756 mmHg 55%
    16:00 +5°C° 0 mm 3 m/s 756 mmHg 58%
    17:00 +5°C° 0 mm 3 m/s 756 mmHg 59%
    18:00 +4°C° 0 mm 3 m/s 756 mmHg 61%
    19:00 +4°C° 0 mm 3 m/s 756 mmHg 63%
    20:00 +5°C° 0 mm 2 m/s 756 mmHg 63%
    21:00 +5°C° 0 mm 2 m/s 756 mmHg 63%
    22:00 +5°C° 0 mm 2 m/s 756 mmHg 64%
    23:00 +5°C° 0 mm 2 m/s 756 mmHg 64%

    Après-demain, 21 Novembre, Mardi

    Heure Température Précipitation Vent Pression Humidité
    00:00 +5°C° 0 mm 2 m/s 756 mmHg 64%
    01:00 +5°C° 0 mm 2 m/s 755 mmHg 64%
    02:00 +4°C° 0,1 mm 3 m/s 755 mmHg 63%
    03:00 +4°C° 0,1 mm 3 m/s 754 mmHg 63%
    04:00 +4°C° 0,1 mm 4 m/s 753 mmHg 62%
    05:00 +4°C° 0,1 mm 4 m/s 753 mmHg 65%
    06:00 +4°C° 0,1 mm 3 m/s 753 mmHg 68%
    07:00 +4°C° 0,1 mm 3 m/s 753 mmHg 70%
    08:00 +5°C° 0,1 mm 4 m/s 753 mmHg 68%
    09:00 +6°C° 0,1 mm 5 m/s 753 mmHg 66%
    10:00 +7°C° 0,1 mm 5 m/s 753 mmHg 63%
    11:00 +8°C° 0,1 mm 5 m/s 753 mmHg 61%
    12:00 +9°C° 0,1 mm 5 m/s 752 mmHg 60%
    13:00 +10°C° 0,1 mm 5 m/s 752 mmHg 58%
    14:00 +9°C° 0 mm 5 m/s 752 mmHg 60%
    15:00 +10°C° 0 mm 4 m/s 752 mmHg 62%
    16:00 +8°C° 0 mm 4 m/s 752 mmHg 65%
    17:00 +8°C° 0 mm 4 m/s 753 mmHg 67%
    18:00 +8°C° 0 mm 4 m/s 753 mmHg 69%
    19:00 +8°C° 0 mm 4 m/s 753 mmHg 71%
    20:00 +8°C° 0 mm 4 m/s 753 mmHg 72%
    21:00 +8°C° 0 mm 4 m/s 753 mmHg 73%
    22:00 +8°C° 0 mm 4 m/s 754 mmHg 75%
    23:00 +8°C° 0 mm 4 m/s 754 mmHg 76%

    22 Novembre, Mercredi

    Heure Température Précipitation Vent Pression Humidité
    00:00 +7°C° 0 mm 4 m/s 754 mmHg 78%
    01:00 +8°C° 0 mm 3 m/s 754 mmHg 80%
    02:00 +8°C° 0 mm 3 m/s 754 mmHg 81%
    03:00 +8°C° 0 mm 3 m/s 754 mmHg 83%
    04:00 +8°C° 0 mm 3 m/s 754 mmHg 84%
    05:00 +8°C° 0 mm 3 m/s 755 mmHg 85%
    06:00 +7°C° 0 mm 3 m/s 755 mmHg 87%
    07:00 +7°C° 0 mm 2 m/s 755 mmHg 88%
    08:00 +8°C° 0 mm 3 m/s 756 mmHg 82%
    09:00 +9°C° 0 mm 3 m/s 756 mmHg 76%
    10:00 +10°C° 0 mm 3 m/s 756 mmHg 71%
    11:00 +12°C° 0 mm 2 m/s 756 mmHg 66%
    12:00 +13°C° 0 mm 2 m/s 756 mmHg 62%
    13:00 +15°C° 0 mm 2 m/s 756 mmHg 57%
    14:00 +14°C° 0 mm 2 m/s 756 mmHg 61%
    15:00 +13°C° 0 mm 2 m/s 756 mmHg 66%
    16:00 +12°C° 0 mm 2 m/s 756 mmHg 70%
    17:00 +10°C° 0 mm 2 m/s 756 mmHg 73%
    18:00 +10°C° 0 mm 2 m/s 756 mmHg 77%
    19:00 +9°C° 0 mm 2 m/s 756 mmHg 80%
    20:00 +9°C° 0 mm 2 m/s 757 mmHg 82%
    21:00 +9°C° 0 mm 2 m/s 757 mmHg 84%
    22:00 +8°C° 0 mm 2 m/s 757 mmHg 85%
    23:00 +8°C° 0 mm 2 m/s 757 mmHg 86%

    23 Novembre, Jeudi

    Heure Température Précipitation Vent Pression Humidité
    00:00 +8°C° 0 mm 2 m/s 757 mmHg 87%
    01:00 +8°C° 0 mm 2 m/s 757 mmHg 88%
    02:00 +7°C° 0 mm 2 m/s 757 mmHg 89%
    03:00 +7°C° 0 mm 2 m/s 757 mmHg 89%
    04:00 +7°C° 0 mm 2 m/s 757 mmHg 89%
    05:00 +7°C° 0 mm 2 m/s 757 mmHg 90%
    06:00 +7°C° 0 mm 2 m/s 758 mmHg 90%
    07:00 +6°C° 0 mm 2 m/s 758 mmHg 90%
    08:00 +8°C° 0 mm 2 m/s 758 mmHg 85%
    09:00 +9°C° 0 mm 2 m/s 759 mmHg 79%
    10:00 +12°C° 0 mm 2 m/s 759 mmHg 74%
    11:00 +13°C° 0 mm 2 m/s 759 mmHg 70%
    12:00 +14°C° 0 mm 2 m/s 759 mmHg 66%
    13:00 +15°C° 0 mm 2 m/s 759 mmHg 62%
    14:00 +14°C° 0 mm 2 m/s 759 mmHg 67%
    15:00 +13°C° 0 mm 1 m/s 759 mmHg 71%
    16:00 +12°C° 0 mm 1 m/s 759 mmHg 75%
    17:00 +11°C° 0 mm 1 m/s 759 mmHg 77%
    18:00 +11°C° 0 mm 1 m/s 759 mmHg 79%
    19:00 +10°C° 0 mm 1 m/s 760 mmHg 81%
    20:00 +10°C° 0 mm 1 m/s 760 mmHg 82%
    21:00 +9°C° 0 mm 1 m/s 760 mmHg 83%
    22:00 +9°C° 0 mm 1 m/s 760 mmHg 84%
    23:00 +9°C° 0 mm 1 m/s 760 mmHg 85%

    24 Novembre, Vendredi

    Heure Température Précipitation Vent Pression Humidité
    00:00 +9°C° 0 mm 1 m/s 760 mmHg 86%
    01:00 +8°C° 0 mm 1 m/s 760 mmHg 87%
    02:00 +7°C° 0 mm 0 m/s 760 mmHg 87%
    03:00 +7°C° 0 mm 0 m/s 760 mmHg 88%
    04:00 +7°C° 0 mm 0 m/s 760 mmHg 89%
    05:00 +6°C° 0 mm 0 m/s 760 mmHg 89%
    06:00 +6°C° 0 mm 0 m/s 760 mmHg 90%
    07:00 +6°C° 0 mm 0 m/s 760 mmHg 90%
    08:00 +8°C° 0 mm 1 m/s 760 mmHg 85%
    09:00 +10°C° 0 mm 1 m/s 761 mmHg 81%
    10:00 +11°C° 0 mm 1 m/s 761 mmHg 76%
    11:00 +12°C° 0 mm 1 m/s 760 mmHg 72%
    12:00 +13°C° 0 mm 1 m/s 760 mmHg 68%
    13:00 +14°C° 0 mm 1 m/s 760 mmHg 64%
    14:00 +13°C° 0 mm 1 m/s 760 mmHg 68%
    15:00 +12°C° 0 mm 1 m/s 760 mmHg 71%
    16:00 +11°C° 0 mm 1 m/s 760 mmHg 75%
    17:00 +11°C° 0 mm 1 m/s 760 mmHg 77%
    18:00 +10°C° 0 mm 1 m/s 760 mmHg 79%
    19:00 +10°C° 0 mm 1 m/s 760 mmHg 81%
    20:00 +9°C° 0 mm 1 m/s 760 mmHg 81%
    21:00 +9°C° 0 mm 1 m/s 760 mmHg 81%
    22:00 +9°C° 0 mm 1 m/s 760 mmHg 82%
    23:00 +8°C° 0 mm 1 m/s 760 mmHg 82%
    Voir plus